Date String (YYYY-MM-DD hh:mm:ss) UTC,Instrument flags,absolute air pressure of the measurement (hPa),sample flow rate (lpm),inlet stack bypass flow (lpm),air temperature of the measurement (°C),ambient temperature measured by the external sensor (°C),aerosol sample conditioner tube jacket temperature (°C),OPC LED temperature (°C),internal box temperature (°C),relative humidity of the measurement (%),span deviation,mass concentration of particles derived from Lorenz-Mie calculation of OPC scattering (μg/m³),mass concentration of particles derived from Lorenz-Mie calculation of OPC scattering (μg/m³),mass concentration of particles derived from Lorenz-Mie calculation of OPC scattering (μg/m³)
DateTimeUTC,F1_M11,P_M11,Q1_M11,Q2_M11,T1_M11,T2_M11,T3_M11,T4_M11,T5_M11,U1_M11,ZSPAN_M11,X2_M11,X0_M11,X1_M11
2024-06-11 15:00:00,SystemResetWarning,0832.0,5.00,000.00,029.6,028.0,000.0,038.2,031.1,034.5,0000.0,0005.81,0013.86,0005.00
2024-06-11 15:01:00,SystemResetWarning,0832.0,5.01,000.00,029.6,028.3,000.0,038.2,031.2,034.1,0000.0,0005.82,0013.57,0004.99
2024-06-11 15:02:00,SystemResetWarning,0831.9,5.00,000.00,029.6,028.5,000.0,038.2,031.3,034.2,0000.0,0005.79,0013.19,0004.95
2024-06-11 15:03:00,SystemResetWarning,0831.9,5.00,000.00,029.7,028.7,000.0,038.2,031.4,034.2,0000.0,0005.77,0013.82,0004.90
2024-06-11 15:04:00,SystemResetWarning,0831.9,4.99,000.00,029.7,028.9,000.0,038.1,031.5,034.2,0000.0,0005.77,0014.67,0004.87
2024-06-11 15:05:00,SystemResetWarning,0831.9,5.00,000.00,029.8,029.0,000.0,038.2,031.5,034.6,0000.0,0005.73,0014.67,0004.85
2024-06-11 15:06:00,SystemResetWarning,0831.9,5.00,000.00,029.8,029.1,000.0,038.2,031.6,034.1,0000.0,0005.73,0014.80,0004.83
2024-06-11 15:07:00,SystemResetWarning,0832.0,5.00,000.00,029.9,029.2,000.0,038.2,031.6,033.3,0000.0,0005.72,0014.78,0004.81
2024-06-11 15:08:00,SystemResetWarning,0832.0,5.00,000.00,029.9,029.3,000.0,038.2,031.7,033.6,0000.0,0005.70,0014.53,0004.80
2024-06-11 15:09:00,SystemResetWarning,0831.9,4.99,000.00,030.0,029.4,000.0,038.2,031.7,033.9,0000.0,0005.68,0014.42,0004.79
2024-06-11 15:10:00,SystemResetWarning,0831.9,5.00,000.00,030.0,029.4,000.0,038.3,031.8,033.0,0000.0,0005.68,0013.66,0004.79
2024-06-11 15:11:00,SystemResetWarning,0831.9,5.00,000.00,030.1,029.5,000.0,038.3,031.8,032.8,0000.0,0005.67,0013.13,0004.81
2024-06-11 15:12:00,SystemResetWarning,0831.9,5.00,000.00,030.1,029.6,000.0,038.3,031.9,032.6,0000.0,0005.70,0013.82,0004.84
2024-06-11 15:13:00,SystemResetWarning,0831.9,5.00,000.00,030.1,029.6,000.0,038.3,031.9,032.6,0000.0,0005.73,0013.39,0004.86
2024-06-11 15:14:00,SystemResetWarning,0831.9,5.01,000.00,030.2,029.7,000.0,038.4,031.9,033.0,0000.0,0005.74,0013.04,0004.89
2024-06-11 15:15:00,SystemResetWarning,0832.0,5.00,000.00,030.2,029.7,000.0,038.4,032.0,033.1,0000.0,0005.78,0012.07,0004.92
2024-06-11 15:16:00,SystemResetWarning,0831.9,4.99,000.00,030.2,029.4,000.0,038.5,031.8,032.9,0000.0,0005.78,0012.32,0004.92
2024-06-11 15:17:00,SystemResetWarning,0831.9,4.98,000.00,030.0,027.5,000.0,038.5,030.9,032.8,0000.0,0005.80,0012.36,0004.93
2024-06-11 15:18:00,SystemResetWarning,0831.7,5.02,000.00,029.6,026.1,000.0,038.5,030.2,033.7,0000.0,0005.77,0012.15,0004.95
2024-06-11 15:19:00,SystemResetWarning,0832.0,5.00,000.00,029.3,026.3,000.0,038.4,030.2,034.3,0000.0,0005.78,0011.84,0004.97
2024-06-11 15:20:00,SystemResetWarning,0832.3,5.00,000.00,029.3,026.7,000.0,038.3,030.3,034.7,0000.0,0005.77,0010.85,0004.99
2024-06-11 15:21:00,SystemResetWarning,0832.4,5.00,000.00,029.3,027.2,000.0,038.1,030.6,035.1,0000.0,0005.75,0010.80,0005.00
2024-06-11 15:22:00,SystemResetWarning,0832.1,5.00,000.00,029.3,027.5,000.0,038.1,030.8,034.7,0000.0,0005.79,0011.33,0005.00
2024-06-11 15:23:00,SystemResetWarning,0832.1,5.00,000.00,029.4,027.9,000.0,038.0,030.9,034.8,0000.0,0005.77,0010.70,0004.99
2024-06-11 15:24:00,SystemResetWarning,0832.1,5.01,000.00,029.4,028.2,000.0,038.0,031.1,034.7,0000.0,0005.75,0010.67,0004.98
2024-06-11 15:25:00,SystemResetWarning,0832.2,5.00,000.00,029.5,028.4,000.0,038.0,031.2,034.6,0000.0,0005.75,0011.14,0004.97
2024-06-11 15:26:00,SystemResetWarning,0832.2,5.00,000.00,029.5,028.6,000.0,038.0,031.2,034.5,0000.0,0005.74,0011.01,0004.98
2024-06-11 15:27:00,SystemResetWarning,0832.1,5.00,000.00,029.6,028.7,000.0,038.0,031.3,034.6,0000.0,0005.78,0010.57,0005.00
2024-06-11 15:28:00,SystemResetWarning,0832.2,5.01,000.00,029.6,028.9,000.0,038.0,031.4,034.4,0000.0,0005.80,0010.51,0005.00
2024-06-11 15:29:00,SystemResetWarning,0831.8,5.00,000.00,029.7,029.0,000.0,038.0,031.4,034.0,0000.0,0005.82,0010.78,0005.00
2024-06-11 15:30:00,SystemResetWarning,0831.8,5.00,000.00,029.7,029.1,000.0,038.0,031.5,033.9,0000.0,0005.84,0010.96,0005.00
2024-06-11 15:31:00,SystemResetWarning,0831.8,5.00,000.00,029.8,029.2,000.0,038.1,031.6,033.5,0000.0,0005.90,0011.31,0005.02
2024-06-11 15:32:00,SystemResetWarning,0831.9,4.99,000.00,029.8,029.3,000.0,038.1,031.6,033.6,0000.0,0005.96,0011.45,0005.03
2024-06-11 15:33:00,SystemResetWarning,0831.9,5.00,000.00,029.9,029.4,000.0,038.1,031.7,033.6,0000.0,0005.94,0011.38,0005.03
2024-06-11 15:34:00,SystemResetWarning,0831.9,5.00,000.00,029.9,029.4,000.0,038.1,031.7,033.8,0000.0,0005.93,0011.10,0005.02
2024-06-11 15:35:00,SystemResetWarning,0831.8,5.00,000.00,030.0,029.5,000.0,038.1,031.8,033.0,0000.0,0005.93,0011.05,0005.03
2024-06-11 15:36:00,SystemResetWarning,0831.8,5.00,000.00,030.0,029.6,000.0,038.2,031.8,032.9,0000.0,0005.96,0010.68,0005.05
2024-06-11 15:37:00,SystemResetWarning,0831.8,5.00,000.00,030.1,029.6,000.0,038.2,031.9,032.9,0000.0,0006.01,0010.76,0005.07
2024-06-11 15:38:00,SystemResetWarning,0831.9,5.01,000.00,030.1,029.6,000.0,038.3,031.9,033.4,0000.0,0006.05,0011.75,0005.09
2024-06-11 15:39:00,SystemResetWarning,0831.8,4.98,000.00,030.0,028.3,000.0,038.3,031.2,033.5,0000.0,0006.03,0011.79,0005.08
2024-06-11 15:40:00,SystemResetWarning,0831.7,5.00,000.00,029.6,026.5,000.0,038.4,030.4,034.1,0000.0,0006.00,0012.41,0005.08
2024-06-11 15:41:00,SystemResetWarning,0831.7,5.01,000.00,029.4,026.3,000.0,038.3,030.2,034.8,0000.0,0006.02,0012.80,0005.08
2024-06-11 15:42:00,SystemResetWarning,0831.7,5.00,000.00,029.3,026.7,000.0,038.2,030.3,034.9,0000.0,0005.97,0012.95,0005.06
2024-06-11 15:43:00,SystemResetWarning,0831.7,5.00,000.00,029.3,027.1,000.0,038.1,030.5,034.4,0000.0,0005.93,0013.00,0005.05
2024-06-11 15:44:00,SystemResetWarning,0831.7,5.00,000.00,029.3,027.5,000.0,038.0,030.8,034.2,0000.0,0005.95,0012.82,0005.06
2024-06-11 15:45:00,SystemResetWarning,0831.7,5.00,000.00,029.3,027.8,000.0,037.9,030.9,034.2,0000.0,0005.97,0012.71,0005.07
2024-06-11 15:46:00,SystemResetWarning,0831.7,5.00,000.00,029.4,028.1,000.0,037.9,031.0,034.0,0000.0,0005.97,0012.72,0005.07
2024-06-11 15:47:00,SystemResetWarning,0831.7,4.99,000.00,029.4,028.3,000.0,037.9,031.1,033.8,0000.0,0005.95,0012.72,0005.05
2024-06-11 15:48:00,SystemResetWarning,0831.8,5.00,000.00,029.5,028.5,000.0,037.9,031.2,034.6,0000.0,0005.91,0012.97,0005.03
2024-06-11 15:49:00,SystemResetWarning,0832.2,5.00,000.00,029.5,028.7,000.0,037.9,031.2,033.8,0000.0,0005.82,0012.59,0005.00
2024-06-11 15:50:00,SystemResetWarning,0831.9,5.00,000.00,029.6,028.8,000.0,037.9,031.3,033.5,0000.0,0005.80,0012.99,0005.01
2024-06-11 15:51:00,SystemResetWarning,0831.9,5.00,000.00,029.6,029.0,000.0,037.9,031.4,033.4,0000.0,0005.85,0012.49,0005.02
2024-06-11 15:52:00,SystemResetWarning,0831.7,5.00,000.00,029.7,029.1,000.0,037.9,031.4,033.0,0000.0,0005.85,0012.39,0005.03
2024-06-11 15:53:00,SystemResetWarning,0831.7,5.00,000.00,029.7,029.2,000.0,038.0,031.5,032.8,0000.0,0005.88,0012.59,0005.05
2024-06-11 15:54:00,SystemResetWarning,0831.7,4.99,000.00,029.8,029.2,000.0,038.0,031.6,032.7,0000.0,0005.90,0012.38,0005.07
2024-06-11 15:55:00,SystemResetWarning,0831.7,5.00,000.00,029.8,029.3,000.0,038.0,031.6,033.0,0000.0,0005.91,0012.35,0005.08
2024-06-11 15:56:00,SystemResetWarning,0831.8,4.99,000.00,029.9,029.4,000.0,038.1,031.6,032.6,0000.0,0005.92,0012.34,0005.09
2024-06-11 15:57:00,SystemResetWarning,0831.7,5.00,000.00,029.9,029.4,000.0,038.1,031.7,032.6,0000.0,0005.94,0012.89,0005.11
2024-06-11 15:58:00,SystemResetWarning,0831.7,5.01,000.00,030.0,029.5,000.0,038.1,031.8,033.1,0000.0,0005.95,0013.04,0005.14
2024-06-11 15:59:00,SystemResetWarning,0831.7,5.00,000.00,030.0,029.4,000.0,038.2,031.7,033.1,0000.0,0005.93,0013.05,0005.14
